Regional Weather Roundup
Issued by NWS

Home | Current Version | Previous Version | Text Only | Print | Product List | Glossary On
Versions: 1 2 3 4 5 6 7 8 9 10 11 12 13 14 15 16 17 18 19 20 21 22 23 24 25 26 27 28 29 30 31 32 33 34 35 36 37 38 39 40 41 42 43 44 45 46 47 48
000
ASUS42 KFFC 091003
RWRGA
WEATHER ROUNDUP FOR GEORGIA
NATIONAL WEATHER SERVICE PEACHTREE CITY GA
500 AM EST TUE FEB 09 2016

NOTE: "FAIR" INDICATES FEW OR NO CLOUDS BELOW 12,000 FEET WITH NO
SIGNIFICANT WEATHER AND/OR OBSTRUCTIONS TO VISIBILITY.

* = USE WITH CAUTION. THE STATIONS MARKED WITH AN ASTERISK MAY NOT
REPORT WEATHER SUCH AS PRECIPITATION, FOG, OR THUNDER AND ARE NOT
QUALITY CONTROLLED BY NWS.

THE REMARK "TC" DENOTES TEMPERATURE READING IN DEGREES CELSIUS.

GAZ001>058-091100-
NORTH GEORGIA

CITY           SKY/WX    TMP DP  RH WIND       PRES   REMARKS
ATLANTA        CLOUDY    34  21  59 NW13      29.80S WCI  25
ATHENS         CLOUDY    35  25  66 W10       29.77S WCI  27
CHAMBLEE       CLOUDY    34  22  61 W13G24    29.79R WCI  25
PEACHTREE CITY CLOUDY    36  24  62 VRB6      29.82R WCI  31
ROME           CLOUDY    34  22  61 W9        29.83R WCI  27
WEST ATLANTA   CLOUDY    35  21  56 W14G22    29.81S WCI  26
GAINESVILLE    CLOUDY    32  21  64 NW14      29.76S WCI  22
CARTERSVILLE   CLOUDY    34  22  61 VRB3      29.83R


CITY           SKY/WX    TMP DP  RH WIND       PRES   REMARKS
MARIETTA       MIX PCPN  32  21  64 W17       29.79  WCI  21
BLAIRSVILLE*     N/A     28   1  31 NW5       29.72S WCI  23
$$

GAZ059>098-102>109-091100-
CENTRAL GEORGIA

CITY           SKY/WX    TMP DP  RH WIND       PRES   REMARKS
AUGUSTA-BUSH   PTCLDY    34  24  67 SW6       29.80S WCI  29
AUGUSTA-DANIEL PTCLDY    36  22  56 W7        29.79S WCI  30
COLUMBUS       CLOUDY    37  22  54 W12       29.88R WCI  29
MACON          CLOUDY    37  23  56 W10       29.83F WCI  30


CITY           SKY/WX    TMP DP  RH WIND       PRES   REMARKS
LAGRANGE*      CLOUDY    41  26  55 NW16G25   29.85R
SYLVANIA*      PTCLDY    38  31  77 W5        29.83R WCI  34
MILLEDGEVILLE* CLOUDY    37  25  60 CALM      29.81F
$$

GAZ099>101-110>166-091100-
SOUTH GEORGIA

CITY           SKY/WX    TMP DP  RH WIND       PRES   REMARKS
SAVANNAH       CLEAR     37  29  72 W10       29.85R WCI  30
VALDOSTA       CLEAR     39  22  50 CALM      29.94R
ALMA           MOCLDY    37  29  72 W7        29.88S WCI  32
ST SIMONS      CLEAR     40  33  76 W7        29.88S
ALBANY         CLEAR     37  22  54 W8        29.93S WCI  31
BRUNSWICK      CLEAR     39  34  81 W8        29.89S WCI  34


CITY           SKY/WX    TMP DP  RH WIND       PRES   REMARKS
MOULTRIE*      CLEAR     39  25  56 W6        29.93F WCI  35
VIDALIA*       PTCLDY    37  27  65 W3        29.85S
WAYCROSS*      MOCLDY    42  32  68 W7        29.90S
DOUGLAS*       CLEAR     41  28  60 W7        29.90F
$$



USA.gov is the U.S. government's official web portal to all federal, state and local government web resources and services.